www.pogodaiklimat.ru

Погода и климат >> Архив погоды >> Россия >> Еврейская автономная область >> Биробиджан


ПОГОДА в Биробиджане

  • Прогноз погоды в Биробиджане
  • Монитор погоды в Биробиджане

АРХИВ ПОГОДЫ в Биробиджане

Время (UTC), дата Ветер
(напр.,м/с)
 
Видим.   Явления Облачность Т
(С)
Тd
(С)
f
(%)
Тe
(С)
Тes
(С)
Комфортность P
(гПа)
Po
(гПа)
Тmin
(С)
Tmax
(С)
R
(мм)
R24
(мм)
S
(см)
09 10.07 Ю 2 20 км 6/3 1000 м
[Cu hum Ci fib]
+28.0 +21.4 67 +35 +37 очень
душно
1010.0 1001.0 +28.4
12 10.07 Ю 1 20 км 9/1 1000 м
[Sc diur, vesp Ci]
+22.8 +21.3 91 +30 +30 очень
душно
1010.9 1001.7
15 10.07 ЮЗ 1 4000 м дымка ясно +20.2 +19.5 96 +25 +25 комфорт 1011.1 1001.8
18 10.07 штиль 0 4000 м дымка ясно +18.6 +18.0 96 +20 +20 1010.3 1001.0
21 10.07 штиль 0 2000 м в посл. час туман 8/0
[Ci fib]
+20.1 +19.6 97 +23 +25 комфорт 1010.8 1001.6 +17.6
00 11.07 Ю 1 20 км {туман} 6/3 600 м
[Cb calv Ci fib]
+25.6 +18.6 65 +30 +38 душно 1010.2 1001.1
03 11.07 Ю 3 20 км 8/3 600 м
[Cb cap Ac lent Ci]
+28.1 +17.0 51 +32 +39 душно 1009.1 1000.0
06 11.07 Ю 3 20 км 9/1 600 м
[Cb cap Cs]
+28.5 +18.4 54 +33 +41 очень
душно
1007.3 998.3
09 11.07 ЮЗ 2 20 км 6/0
[As op Ci fib]
+26.7 +19.0 63 +32 +33 очень
душно
1006.4 997.3 +28.8
12 11.07 Ю 1 20 км 10/0
[Ac As]
+21.0 +18.0 83 +26 +26 душно 1006.7 997.5
15 11.07 штиль 0 20 км 9/0
[As trans Ci fib]
+18.0 +17.0 94 +18 +18 1006.1 996.8
18 11.07 штиль 0 4000 м дымка 10/0
[Cs]
+16.4 +15.9 97 +16 +16 1005.8 996.4
21 11.07 С 1 20 км 9/0
[As op Ci]
+17.5 +17.0 97 +19 +20 1005.6 996.3 +15.7
00 12.07 штиль 0 20 км 5/0
[Cc]
+23.6 +18.4 73 +28 +41 душно 1005.2 996.1
03 12.07 Ю 1 20 км 3/1 1000 м
[Cu med, cong Ci fib]
+27.3 +15.8 49 +30 +48 душно 1004.2 995.2
06 12.07 ЮЗ 2 20 км 3/1 1000 м
[Cu hum Ac cast Ci fib]
+28.9 +16.4 47 +32 +32 душно 1002.2 993.3
09 12.07 ЮВ 1 20 км 4/0
[Ac lent Ci fib]
+27.1 +18.2 58 +32 +34 очень
душно
1002.2 993.2 +29.0
12 12.07 штиль 0 10 км 3/0
[Ac lent Ci fib]
+20.7 +19.0 90 +25 +25 комфорт 1003.8 994.6
15 12.07 СВ 1 10 км 1/0
[Ac cast]
+20.2 +18.5 90 +25 +25 комфорт 1004.1 994.9
18 12.07 штиль 0 4000 м дымка 6/0
[Ac trans Ci fib]
+18.1 +17.4 96 +18 +18 1004.8 995.4
21 12.07 штиль 0 10 км 9/1 300 м
[St Ac trans Ci fib]
+18.8 +17.6 93 +20 +21 1005.5 996.2 +17.8
00 13.07 В 2 20 км 9/4 600 м
[Cb cap Ac trans Cc]
+23.4 +18.7 75 +30 +33 очень
душно
1006.1 996.9
03 13.07 В 3 20 км 8/6 600 м
[Cb cap Cc]
+26.1 +19.3 66 +31 +37 очень
душно
1005.2 996.1
06 13.07 В 2 20 км 8/8 600 м
[Cb cap Ci fib]
+26.7 +19.3 64 +32 +34 очень
душно
1003.8 994.8
09 13.07 В 1 2000 м гроза, ливневой дождь 9/9 600 м
[Cb cap Ac trans]
+20.7 +19.9 95 +26 +27 душно 1004.3 995.1 +27.4 7
12 13.07 штиль 0 20 км {гроза, ливн. осадки} 10/10 600 м
[Cb cap Ac trans]
+20.6 +19.8 95 +25 +25 комфорт 1005.6 996.4
15 13.07 СВ 1 20 км 10/10 600 м
[St]
+20.5 +19.2 92 +26 +26 душно 1006.1 996.9
18 13.07 штиль 0 20 км 9/9 600 м
[St]
+19.6 +18.4 93 +22 +22 комфорт 1006.3 997.0
21 13.07 СВ 1 20 км 10/8 600 м
[Cb cap As op]
+20.1 +18.1 88 +24 +24 комфорт 1007.0 997.7 +19.4 4
00 14.07 В 4 20 км 9/1 600 м
[Cb cap Ac As]
+21.5 +16.4 73 +25 +28 комфорт 1007.3 998.0
03 14.07 В 3 20 км 10/3 600 м
[Cb cap Cc]
+24.6 +17.7 65 +29 +37 душно 1007.0 997.9
06 14.07 В 3 20 км 8/4 600 м
[Cb cap Ci]
+26.9 +18.4 60 +32 +37 очень
душно
1005.9 996.9
09 14.07 В 2 20 км 6/3 600 м
[Cb cap Ci fib]
+26.1 +18.5 63 +31 +32 очень
душно
1005.9 996.8 +27.1
12 14.07 СВ 1 20 км 4/3 1000 м
[Sc diur, vesp Ac lent]
+21.2 +18.9 87 +26 +26 душно 1007.6 998.4
15 14.07 СВ 2 20 км 6/6 600 м
[Cb cap]
+21.2 +18.0 82 +25 +25 комфорт 1008.4 999.2
18 14.07 С 1 20 км 3/3 600 м
[Cb cap]
+19.2 +17.1 88 +22 +22 комфорт 1008.9 999.6
21 14.07 СВ 1 20 км 5/3 600 м
[Cb cap Cc]
+19.9 +17.0 83 +24 +25 комфорт 1010.2 1000.9 +17.8
00 15.07 СВ 1 20 км 8/8 600 м
[Cb cap]
+22.9 +18.4 76 +29 +31 очень
душно
1010.7 1001.5
03 15.07 ЮВ 2 50 км 8/4 600 м
[Cb cap Ci fib]
+26.1 +18.6 63 +31 +40 очень
душно
1010.2 1001.1
06 15.07 Ю 3 50 км 6/4 600 м
[Cb cap Ac cast Ci fib]
+26.7 +19.1 63 +32 +37 очень
душно
1009.5 1000.4
09 15.07 Ю 1 20 км 3/1 600 м
[Cb cap Ci fib]
+25.1 +18.8 68 +30 +32 душно 1009.3 1000.2 +27.1
12 15.07 штиль 0 50 км 3/1 1000 м
[Sc diur, vesp Ac lent Ci fib]
+19.9 +18.7 93 1010.6 1001.3
15 15.07 штиль 0 20 км 9/5 600 м
[Cb cap Ac trans Ci fib]
+18.8 +18.2 96 +20 +20 1011.3 1002.0
18 15.07 штиль 0 20 км 6/3 600 м
[Cb cap Ci fib]
+18.6 +17.9 96 +20 +20 1011.4 1002.0
21 15.07 В 1 20 км 9/9 600 м
[Cb cap]
+19.0 +17.9 93 +22 +22 комфорт 1011.6 1002.3 +18.3
00 16.07 В 2 50 км 6/3 600 м
[Cb calv Ac cuf Ci fib]
+25.0 +19.3 71 +30 +36 душно 1011.3 1002.2
03 16.07 ЮВ 3 50 км 9/9 600 м
[Cb cap Cc]
+26.2 +18.3 62 +31 +32 очень
душно
1010.7 1001.6
06 16.07 Ю 3 50 км {ливн. осадки} 8/8 600 м
[Cb cap Ac trans]
+25.4 +19.1 68 +30 +32 душно 1009.4 1000.3
09 16.07 Ю 3 50 км {ливн. осадки} 8/8 600 м
[Cb cap]
+25.3 +19.0 68 +30 +31 душно 1008.8 999.7 +26.9 2
12 16.07 ЮВ 1 50 км {ливн. осадки} 8/1 600 м
[Cb cap Ac As]
+21.5 +18.1 81 +26 +26 душно 1009.9 1000.6
15 16.07 штиль 0 50 км 3/0
[Ac trans]
+17.8 +16.9 94 +18 +18 1010.0 1000.6
18 16.07 СВ 1 50 км 9/0
[Ac trans]
+17.2 +16.6 96 +18 +18 1009.2 999.8
21 16.07 В 1 10 км 10/10 300 м
[St]
+18.5 +17.6 94 +20 +20 1008.4 999.1 +16.7
00 17.07 В 1 10 км 10/10 300 м
[St]
+21.0 +18.3 85 +26 +26 душно 1007.6 998.4
03 17.07 ЮВ 1 10 км слаб. ливневой дождь 10/10 300 м
[Cb cap]
+19.2 +18.4 95 +22 +22 комфорт 1007.0 997.7

 

Местоположение метеостанции Биробиджан (Еврейская автономная область, Россия): широта 48.73 долгота 132.90 высота над уровнем моря 77 м.

В архиве по умолчанию представлена погода в Биробиджане за последнюю неделю. Архивные данные за месяц целиком и за предыдущие месяцы, начиная с января 2011 года, Вы можете получить, выбрав интересующий диапазон дат из раскрывающегося списка и нажав кнопку "Ввод!".


*Определитесь, кто Вы:
робот инопланетянин человек

Внимание! Время в таблицах - всемирное. Для получения местного времени необходимо прибавить поправку, которая равна 10 ч.

Смотрите также архив погоды в соседних городах и на ближайших метеорологических станциях:

Погода в Смидовиче (Еврейская автономная область, Россия) (68 км)
Погода в Урми (Хабаровский край, Россия) (78 км)
Погода в Ленинское (Еврейская автономная область, Россия) (90 км)
Погода в Хабаровск Центре (Еврейская автономная область, Россия) (91 км)
Погода в Биджане (Еврейская автономная область, Россия) (115 км)
Погода в Облучье (Еврейская автономная область, Россия) (142 км)
Погода в Бычихе (Хабаровский край, Россия) (149 км)
Погода в Верховье Урми (Хабаровский край, Россия) (153 км)
Погода на Хабаровск Мосту (Хабаровский край, Россия) (157 км)
Погода в Хабаровске АМС (Хабаровский край, Россия) (159 км)

Пояснения к столбцам:

Ветер - указаны скорость ветра в м/с - средняя за 10 мин, порывы в срок и между сроками (в фигурных скобках) и направление, откуда дует ветер: С - северный, СВ - северо-восточный, В - восточный, ЮВ - юго-восточный, Ю - южный, ЮЗ - юго-западный, З - западный, СЗ - северо-западный.
Видимость - горизонтальная дальность видимости в метрах или километрах. При видимости от 1 до 10 км при отсутствии осадков обычно наблюдается дымка, при ухудшении видимости до 1 км и менее - туман. В сухую погоду видимость может ухудшаться дымом, пылью или мглою.
Явления - указаны атмосферные явления, наблюдавшиеся в срок или в последний час перед сроком; фигурными скобками обозначены явления, наблюдавшиеся между сроками (за 1-3 часа до срока); квадратными скобками обозначены град или гололедные отложения с указанием их диаметра в мм.
Облачность - указаны через наклонную черту общая и нижняя облачность в баллах и высота нижней границы облаков в метрах; квадратными скобками обозначены формы облаков: Ci - перистые, Cs - перисто-слоистые, Cc - перисто-кучевые, Ac - высококучевые, As - высокослоистые, Sc - слоисто-кучевые, Ns - слоисто-дождевые, Cu - кучевые, Cb - кучево-дождевые. Подробнее классификацию облаков см. в Атласе облаков (PDF).
T - Температура воздуха - температура, измеренная на высоте 2 м над землей.
Td - Температура точки росы - температура, при понижении до которой содержащийся в воздухе водяной пар достигнет насыщения.
f - Относительная влажность воздуха - влажноcть воздуха, измеренная на высоте 2 м над землей.
Te - Эффективная температура - температура, которую ощущает одетый по сезону человек в тени. Характеристика душности погоды. При расчете учитывается влияние влажности воздуха и скорости ветра на теплоощущения человека.
Tes - Эффективная температура на солнце - температура, которую ощущает человек, с поправкой на солнечный нагрев. Характеристика знойности погоды. Зависит от высоты солнца над горизонтом, облачности и скорости ветра. Ночью, в пасмурную погоду, а также при ветре 12 м/с и более поправка равна нулю.
P - Атмосферное давление - приведенное к уровню моря атмосферное давление.
Po - Атмосферное давление - измеренное на уровне метеостанции атмосферное давление.
Tmin - Минимальная температура - минимум температуры воздуха на высоте 2 м над землей.
Tmax - Максимальная температура - максимум температуры воздуха на высоте 2 м над землей.
R - Количество осадков - Количество выпавших осадков за период времени, мм. При наведении курсора мыши на число - период времени, за который выпало указанное количество осадков.
R24 - Количество осадков - Количество выпавших осадков за 24 часа, мм.
S - Снежный покров - Высота снежного покрова, см. При наведении курсора мыши на число - состояние снежного покрова и степень покрытия местности в баллах.